Date String (YYYY-MM-DD hh:mm:ss) UTC,Instrument flags,Ambient pressure (hPa),Sample flow (lpm),Bypass flow (lpm),Sample temperature (°C),Ambient temperature (°C),ASC tube jacket temperature (°C),LED temperature (°C),Box temperature (°C),Sample RH (%),Span deviation,Mass concentration (μg/m³),Mass concentration (μg/m³),Mass concentration (μg/m³)
DateTimeUTC,F1_M11,P_M11,Q1_M11,Q2_M11,T1_M11,T2_M11,T3_M11,T4_M11,T5_M11,U1_M11,ZSPAN_M11,X0_M11,X2_M11,X1_M11
2022-11-29 12:00:00,,0814.2,5.00,0.00,22.4,20.9,00.0,31.5,24.1,10.4,0000.0,0003.42,0000.79,0000.54
2022-11-29 12:01:00,,0814.2,5.00,0.00,22.4,20.7,00.0,31.4,24.0,10.4,0000.0,0003.49,0000.81,0000.54
2022-11-29 12:02:00,,0814.1,5.00,0.00,22.3,20.7,00.0,31.4,24.0,10.4,0000.0,0003.49,0000.81,0000.55
2022-11-29 12:03:00,,0814.1,5.00,0.00,22.4,21.5,00.0,31.4,24.2,10.4,0000.0,0003.41,0000.82,0000.55
2022-11-29 12:04:00,,0814.1,4.99,0.00,22.5,22.4,00.0,31.3,24.4,10.4,0000.0,0002.92,0000.80,0000.54
2022-11-29 12:05:00,,0814.4,4.98,0.00,22.6,22.3,00.0,31.4,24.5,10.3,0000.0,0002.98,0000.82,0000.54
2022-11-29 12:06:00,,0814.3,5.02,0.00,22.5,21.8,00.0,31.4,24.4,10.3,0000.0,0003.03,0000.84,0000.55
2022-11-29 12:07:00,,0814.5,5.00,0.00,22.5,21.5,00.0,31.4,24.3,10.4,0000.0,0003.06,0000.85,0000.54
2022-11-29 12:08:00,,0814.2,4.98,0.00,22.5,21.2,00.0,31.4,24.2,10.4,0000.0,0003.01,0000.83,0000.54
2022-11-29 12:09:00,,0814.4,5.01,0.00,22.4,21.0,00.0,31.4,24.1,10.4,0000.0,0002.09,0000.78,0000.54
2022-11-29 12:10:00,,0814.4,5.00,0.00,22.4,20.9,00.0,31.4,24.1,10.4,0000.0,0001.46,0000.78,0000.54
2022-11-29 12:11:00,,0814.4,5.00,0.00,22.3,20.8,00.0,31.4,24.1,10.4,0000.0,0001.44,0000.77,0000.54
2022-11-29 12:12:00,,0814.5,5.00,0.00,22.3,20.8,00.0,31.4,24.0,10.4,0000.0,0001.46,0000.78,0000.54
2022-11-29 12:13:00,,0814.5,5.00,0.00,22.3,20.9,00.0,31.4,24.0,10.5,0000.0,0001.57,0000.82,0000.55
2022-11-29 12:14:00,,0814.7,5.00,0.00,22.4,21.8,00.0,31.3,24.3,10.4,0000.0,0001.66,0000.84,0000.55
2022-11-29 12:15:00,,0814.5,5.00,0.00,22.5,22.5,00.0,31.3,24.4,10.4,0000.0,0001.66,0000.85,0000.55
2022-11-29 12:16:00,,0814.6,4.99,0.00,22.5,22.1,00.0,31.3,24.4,10.4,0000.0,0001.60,0000.83,0000.55
2022-11-29 12:17:00,,0814.7,5.02,0.00,22.5,21.7,00.0,31.4,24.3,10.4,0000.0,0001.63,0000.83,0000.55
2022-11-29 12:18:00,,0814.6,5.00,0.00,22.5,21.4,00.0,31.4,24.2,10.4,0000.0,0001.63,0000.83,0000.56
2022-11-29 12:19:00,,0814.8,4.98,0.00,22.4,21.2,00.0,31.4,24.2,10.4,0000.0,0001.71,0000.88,0000.56
2022-11-29 12:20:00,,0814.5,5.00,0.00,22.4,21.1,00.0,31.4,24.1,10.4,0000.0,0001.75,0000.92,0000.57
2022-11-29 12:21:00,,0814.4,5.01,0.00,22.4,21.0,00.0,31.4,24.1,10.4,0000.0,0001.82,0000.93,0000.58
2022-11-29 12:22:00,,0814.4,5.01,0.00,22.4,21.0,00.0,31.4,24.1,10.4,0000.0,0001.93,0000.95,0000.58
2022-11-29 12:23:00,,0814.4,5.01,0.00,22.3,20.9,00.0,31.4,24.1,10.4,0000.0,0002.10,0000.94,0000.58
2022-11-29 12:24:00,,0814.4,5.00,0.00,22.3,20.8,00.0,31.4,24.1,10.4,0000.0,0001.99,0000.91,0000.58
2022-11-29 12:25:00,,0814.4,4.99,0.00,22.3,20.9,00.0,31.4,24.0,10.4,0000.0,0002.08,0000.88,0000.58
2022-11-29 12:26:00,,0814.4,5.00,0.00,22.4,21.6,00.0,31.3,24.2,10.4,0000.0,0002.47,0000.90,0000.58
2022-11-29 12:27:00,,0814.4,5.00,0.00,22.5,22.4,00.0,31.3,24.4,10.4,0000.0,0002.58,0000.94,0000.60
2022-11-29 12:28:00,,0814.4,4.97,0.00,22.5,22.3,00.0,31.3,24.5,10.3,0000.0,0002.71,0000.96,0000.61
2022-11-29 12:29:00,,0814.6,5.01,0.00,22.5,22.0,00.0,31.4,24.4,10.3,0000.0,0002.70,0000.95,0000.61
2022-11-29 12:30:00,,0814.7,5.01,0.00,22.5,21.7,00.0,31.4,24.3,10.3,0000.0,0002.99,0000.96,0000.61
2022-11-29 12:31:00,,0814.6,4.99,0.00,22.5,21.5,00.0,31.4,24.3,10.3,0000.0,0003.07,0000.92,0000.61
2022-11-29 12:32:00,,0814.7,4.99,0.00,22.5,21.3,00.0,31.4,24.3,10.3,0000.0,0002.99,0000.91,0000.61
2022-11-29 12:33:00,,0814.6,5.00,0.00,22.5,21.2,00.0,31.4,24.2,10.3,0000.0,0002.96,0000.93,0000.61
2022-11-29 12:34:00,,0814.6,5.01,0.00,22.4,21.1,00.0,31.4,24.2,10.3,0000.0,0002.80,0000.93,0000.61
2022-11-29 12:35:00,,0814.8,5.00,0.00,22.4,21.1,00.0,31.4,24.2,10.3,0000.0,0002.84,0000.93,0000.61
2022-11-29 12:36:00,,0814.7,5.00,0.00,22.4,21.0,00.0,31.4,24.2,10.3,0000.0,0003.36,0000.96,0000.63
2022-11-29 12:37:00,,0814.5,5.01,0.00,22.4,20.9,00.0,31.4,24.1,10.3,0000.0,0003.00,0000.97,0000.63
2022-11-29 12:38:00,,0814.6,4.99,0.00,22.4,20.9,00.0,31.4,24.1,10.3,0000.0,0002.85,0000.92,0000.61
2022-11-29 12:39:00,,0814.8,5.00,0.00,22.4,21.4,00.0,31.3,24.2,10.3,0000.0,0002.82,0000.89,0000.61
2022-11-29 12:40:00,,0814.9,5.01,0.00,22.5,22.3,00.0,31.3,24.4,10.2,0000.0,0002.92,0000.89,0000.60
2022-11-29 12:41:00,,0815.1,4.98,0.00,22.6,22.5,00.0,31.3,24.6,10.2,0000.0,0002.61,0000.87,0000.61
2022-11-29 12:42:00,,0815.1,5.00,0.00,22.6,22.2,00.0,31.4,24.6,10.2,0000.0,0002.58,0000.92,0000.61
2022-11-29 12:43:00,,0815.1,5.01,0.00,22.6,21.9,00.0,31.4,24.5,10.2,0000.0,0002.59,0000.92,0000.62
2022-11-29 12:44:00,,0814.9,5.00,0.00,22.6,21.7,00.0,31.4,24.4,10.2,0000.0,0002.49,0000.90,0000.63
2022-11-29 12:45:00,,0814.9,4.98,0.00,22.6,21.5,00.0,31.5,24.4,10.2,0000.0,0002.61,0000.93,0000.64
2022-11-29 12:46:00,,0814.8,5.00,0.00,22.6,21.4,00.0,31.5,24.4,10.2,0000.0,0002.55,0000.93,0000.64
2022-11-29 12:47:00,,0814.9,5.02,0.00,22.5,21.3,00.0,31.5,24.3,10.2,0000.0,0001.89,0000.91,0000.64
2022-11-29 12:48:00,,0815.1,4.99,0.00,22.5,21.2,00.0,31.5,24.3,10.2,0000.0,0001.93,0000.92,0000.65
2022-11-29 12:49:00,,0815.1,5.00,0.00,22.5,21.1,00.0,31.5,24.3,10.2,0000.0,0002.13,0000.95,0000.66
2022-11-29 12:50:00,,0815.1,5.01,0.00,22.5,21.1,00.0,31.4,24.2,10.2,0000.0,0002.62,0000.96,0000.67
2022-11-29 12:51:00,,0815.0,5.00,0.00,22.5,21.0,00.0,31.4,24.2,10.2,0000.0,0002.86,0000.95,0000.67
2022-11-29 12:52:00,,0815.1,5.00,0.00,22.4,21.0,00.0,31.4,24.2,10.2,0000.0,0003.67,0000.94,0000.66
2022-11-29 12:53:00,,0814.7,4.99,0.00,22.4,21.0,00.0,31.4,24.2,10.2,0000.0,0003.66,0000.93,0000.66
2022-11-29 12:54:00,,0815.0,5.00,0.00,22.4,20.9,00.0,31.4,24.2,10.2,0000.0,0003.60,0000.90,0000.65
2022-11-29 12:55:00,,0815.0,5.01,0.00,22.4,20.9,00.0,31.4,24.2,10.2,0000.0,0003.57,0000.89,0000.64
2022-11-29 12:56:00,,0814.8,5.02,0.00,22.4,21.3,00.0,31.3,24.2,10.2,0000.0,0003.46,0000.85,0000.63
2022-11-29 12:57:00,,0814.7,4.99,0.00,22.5,22.2,00.0,31.3,24.4,10.2,0000.0,0003.35,0000.83,0000.62
2022-11-29 12:58:00,,0815.0,4.99,0.00,22.6,22.5,00.0,31.3,24.6,10.1,0000.0,0003.35,0000.84,0000.62
2022-11-29 12:59:00,,0814.9,5.01,0.00,22.6,22.2,00.0,31.4,24.6,10.1,0000.0,0003.30,0000.82,0000.61
